Location: Kaarina
(60.4167°N, 22.4167°E)
Time: 21:10:48
(UTC+03:00)

Cosmos 1378 - Pass Details

Date: 24 August 2019
Orbit: 494 x 502 km, 82.5° (Epoch: 21 September)

Event Time Altitude Azimuth Distance (km) Brightness Sun altitude
Rises 23:28:10 0° 343° (NNW) 2,604 8.4 -14.4°
Reaches altitude 10° 23:30:18 10° 339° (NNW) 1,717 7.2 -14.6°
Maximum altitude 23:33:59 55° 262° (W) 608 3.6 -14.8°
Enters shadow 23:36:15 21° 191° (S) 1,157 4.5 -14.9°
